Back to catalog

BRAZILSAT B3

AliveCommunicationsGEO
NORAD 25152·PAYLOAD·🇧🇷 Brazil

Launched Feb 4, 1998 from Guiana Space Centre

Loading…

TLE

FreshSource: Space-Track

Epoch: Sep 14, 2026, 13:26 UTC

1 25152U 98006A   26257.55992552  .00000064  00000-0  00000+0 0  9991
2 25152  10.9886  46.7383 0003198 139.8670 232.1345  0.99216231 44107

Track BRAZILSAT B3 in real time with AllMySat

Download on the App Store